This is the latest recevied weather packets stored in our database for station/object DK8HC-WX. If no packets are shown the sender has not sent any weather packets the latest 10 day(s).
| Time | Temp. | Humidity | Pressure | Rain* | Wind** | Luminosity | Snow |
|---|---|---|---|---|---|---|---|
| 1777697500 | 13.33° C | 100% | 1022.1 hPa | - | - | - | - |
| 1777696900 | 13.33° C | 100% | 1022.1 hPa | - | - | - | - |
| 1777696300 | 12.78° C | 100% | 1022.1 hPa | - | - | - | - |
| 1777695700 | 12.22° C | 100% | 1022 hPa | - | - | - | - |
| 1777695100 | 11.11° C | 100% | 1022.1 hPa | - | - | - | - |
| 1777694500 | 11.11° C | 100% | 1022.1 hPa | - | - | - | - |
| 1777693900 | 11.67° C | 100% | 1022.1 hPa | - | - | - | - |
| 1777693300 | 11.67° C | 100% | 1022.2 hPa | - | - | - | - |
| 1777692700 | 11.67° C | 100% | 1022.4 hPa | - | - | - | - |
| 1777692100 | 11.11° C | 100% | 1022.3 hPa | - | - | - | - |
| 1777691500 | 11.67° C | 100% | 1022.4 hPa | - | - | - | - |
| 1777690899 | 11.11° C | 100% | 1022.4 hPa | - | - | - | - |
| 1777690300 | 11.67° C | 100% | 1022.6 hPa | - | - | - | - |
| 1777689699 | 11.67° C | 100% | 1022.7 hPa | - | - | - | - |
| 1777689099 | 11.67° C | 100% | 1022.7 hPa | - | - | - | - |
| 1777688499 | 11.67° C | 100% | 1022.7 hPa | - | - | - | - |
| 1777687900 | 11.67° C | 100% | 1022.8 hPa | - | - | - | - |
| 1777687299 | 12.22° C | 100% | 1022.9 hPa | - | - | - | - |
| 1777686699 | 12.22° C | 100% | 1022.9 hPa | - | - | - | - |
| 1777686099 | 12.22° C | 100% | 1023.1 hPa | - | - | - | - |
| 1777685499 | 12.22° C | 100% | 1023.2 hPa | - | - | - | - |
| 1777684900 | 12.22° C | 100% | 1023.4 hPa | - | - | - | - |
| 1777684299 | 12.22° C | 100% | 1023.5 hPa | - | - | - | - |
| 1777683699 | 12.22° C | 100% | 1023.6 hPa | - | - | - | - |
| 1777683099 | 12.22° C | 100% | 1023.5 hPa | - | - | - | - |
* Rain since midnight (hover to see other rain measurements)
** Current wind speed in m/s (hover to see current wind gust speed)